Regional Weather Roundup
Issued by NWS Charleston, WV

Home | Current Version | Previous Version | Graphics & Text | Print | Product List | Glossary On
Versions: 1 2 3 4 5 6 7 8 9 10 11 12 13 14 15 16 17 18 19 20 21 22 23 24 25 26 27 28 29 30 31 32 33 34 35 36 37 38 39 40 41 42 43 44 45 46 47 48 49 50
000
ASUS41 KRLX 230710
RWRRLX
West Virginia Regional Weather Roundup
National Weather Service Charleston WV
300 AM EDT SAT MAY 23 2015

Note: "fair" indicates few or no clouds below 12,000 feet with no
significant weather and/or obstructions to visibility.

WVZ003-230800-
Northern Panhandle of West Virginia

CITY           SKY/WX    TMP DP  RH WIND       PRES   REMARKS
WHEELING       NOT AVBL
$$

WVZ009-230800-
Northwest West Virginia

CITY           SKY/WX    TMP DP  RH WIND       PRES   REMARKS
PARKERSBURG    CLEAR     52  41  66 E5        30.35S
$$

WVZ006-230800-
Western West Virginia

CITY           SKY/WX    TMP DP  RH WIND       PRES   REMARKS
HUNTINGTON     CLEAR     50  46  86 CALM      30.30R
$$

WVZ015-230800-
West Central West Virginia

CITY           SKY/WX    TMP DP  RH WIND       PRES   REMARKS
CHARLESTON     CLEAR     51  48  89 S7        30.31R
$$

WVZ022-031-230800-
North Central West Virginia

CITY           SKY/WX    TMP DP  RH WIND       PRES   REMARKS
CLARKSBURG     MOCLDY    48  37  65 E3        30.34S
MORGANTOWN     CLEAR     47  31  53 CALM      30.35S
$$

WVZ025-035-042-045-230800-
Southern West Virginia

CITY           SKY/WX    TMP DP  RH WIND       PRES   REMARKS
BECKLEY        CLEAR     50  41  71 S7        30.34R
LOGAN            N/A     52  48  87 CALM      30.29S
BLUEFIELD      PTCLDY    51  40  65 W7        30.36R
LEWISBURG      CLEAR     46  41  84 CALM      30.34S
$$

WVZ047-230800-
Northern Mountains of West Virginia

CITY           SKY/WX    TMP DP  RH WIND       PRES   REMARKS
ELKINS         CLEAR     45  43  93 CALM      30.35R
$$

WVZ052-230800-
Eastern Panhandle of West Virginia

CITY           SKY/WX    TMP DP  RH WIND       PRES   REMARKS
MARTINSBURG    CLEAR     51  24  34 NW7       30.34R
PETERSBURG     MOCLDY    50  38  63 CALM      30.37R
$$



USA.gov is the U.S. government's official web portal to all federal, state and local government web resources and services.